Tracking 19817 objects as of 19-Aug-2019
HD Live streaming from Space Station
objects crossing your sky now

COSMOS 2251 DEB

Track COSMOS 2251 DEB now!
10-day predictions


NORAD ID: 39585
Int'l Code: 1993-036BUQ
Perigee: 669.7 km
Apogee: 774.2 km
Inclination: 74.0 °
Period: 99.1 minutes
Semi major axis: 7092 km
RCS: 0.0032 m2 (small)
Launch date: June 16, 1993
Source: Commonwealth of Independent States (former USSR) (CIS)
Launch site: PLESETSK MISSILE AND SPACE COMPLEX (PKMTR)

Note: This is SATELLITE DEBRIS
aabbcc
Your satellite tracking list
Your tracking list is empty




NASA's NSSDC Master Catalog

Two Line Element Set (TLE):
1 39585U 93036BUQ 19228.03375202  .00000040  00000-0  16436-4 0  9993
2 39585  74.0449 352.9012 0073672 338.9222  20.8907 14.53323607509156
Source of the keplerian elements: AFSPC